Change the Weather History Date:

Thursday, March 7, 2013

  Actual Average Record
Temperature  
Mean Temperature 45 °F 45 °F  
Max Temperature 55 °F 54 °F 69 °F (2005)
Min Temperature 35 °F 35 °F 23 °F (1951)
Degree Days  
Heating Degree Days 20 20  
Month to date heating degree days 145 145  
Since 1 July heating degree days 3522 3672  
Cooling Degree Days 0 0  
Month to date cooling degree days 0 0  
Year to date cooling degree days 0 0  
Moisture  
Dew Point 35 °F    
Average Humidity 65    
Maximum Humidity 92    
Minimum Humidity 38    
Precipitation  
Precipitation 0.00 in 0.11 in 0.86 in (1957)
Month to date precipitation 0.65 0.77  
Year to date precipitation 3.99 11.24  
Snow  
Snow 0.00 in - - ()
Month to date snowfall 0.0  
Since 1 July snowfall 0.0  
Snow Depth 0.00 in    
Sea Level Pressure  
Sea Level Pressure 30.03 in    
Wind  
Wind Speed 3 mph (SE)    
Max Wind Speed 8 mph    
Max Gust Speed 11 mph    
Visibility 10 miles    
Events      
T = Trace of Precipitation, MM = Missing Value Source: NWS Daily Summary

Daily Weather History Graph

Daily Weather History Graph

Search for Another Location

Airport or City:

Trip Planner

Search our weather history database for the weather conditions in past years. The results will help you decide how hot, cold, wet, or windy it might be!

Date:

Astronomy

Mar. 07, 2013 Rise Set
Actual Time 6:38 AM PST 6:07 PM PST
Civil Twilight 6:09 AM PST 6:37 PM PST
Nautical Twilight 5:34 AM PST 7:11 PM PST
Astronomical Twilight 5:00 AM PST 7:46 PM PST
Moon 3:53 AM PST (3/7) 1:51 PM PST (3/7)
Length of Visible Light 12h 27m
Length of Day
11h 28m
Waning Crescent, 19% of the Moon is Illuminated
Mar 7
Waning Crescent
Mar 11
New
Mar 19
First Quarter
Mar 27
Full
Apr 2
Last Quarter

Hourly Weather History & Observations

Time (PST) Temp. Windchill Dew Point Humidity Pressure Visibility Wind Dir Wind Speed Gust Speed Precip Events Conditions
12:53 AM 39.9 °F 37.8 °F 36.0 °F 86% 29.98 in 10.0 mi SSE 3.5 mph - N/A   Mostly Cloudy
1:53 AM 41.0 °F 39.0 °F 37.0 °F 86% 29.99 in 10.0 mi South 3.5 mph - N/A   Overcast
2:53 AM 41.0 °F 36.4 °F 37.0 °F 86% 30.00 in 10.0 mi South 6.9 mph - N/A   Overcast
3:53 AM 37.9 °F 34.4 °F 36.0 °F 93% 30.00 in 10.0 mi East 4.6 mph - N/A   Mostly Cloudy
4:53 AM 37.9 °F 35.5 °F 35.1 °F 89% 30.02 in 10.0 mi ESE 3.5 mph - N/A   Overcast
5:53 AM 37.9 °F - 36.0 °F 93% 30.04 in 10.0 mi Calm Calm - N/A   Overcast
6:53 AM 36.0 °F 31.1 °F 34.0 °F 93% 30.04 in 10.0 mi ESE 5.8 mph - N/A   Scattered Clouds
7:53 AM 39.0 °F - 36.0 °F 89% 30.06 in 10.0 mi Calm Calm - N/A   Clear
8:53 AM 43.0 °F 40.3 °F 37.0 °F 80% 30.07 in 10.0 mi South 4.6 mph - N/A   Clear
9:53 AM 46.0 °F - 37.0 °F 71% 30.07 in 10.0 mi Calm Calm - N/A   Clear
10:53 AM 48.0 °F - 37.0 °F 66% 30.06 in 10.0 mi Calm Calm - N/A   Partly Cloudy
11:37 AM 50.0 °F - 37.0 °F 61% 30.06 in 10.0 mi Calm Calm - N/A   Mostly Cloudy
11:53 AM 50.0 °F - 36.0 °F 59% 30.06 in 10.0 mi Variable 3.5 mph - N/A   Mostly Cloudy
12:53 PM 52.0 °F - 35.1 °F 53% 30.05 in 10.0 mi SSE 6.9 mph - N/A   Mostly Cloudy
1:53 PM 53.1 °F - 32.0 °F 45% 30.03 in 10.0 mi Calm Calm - N/A   Mostly Cloudy
2:53 PM 53.1 °F - 34.0 °F 48% 30.02 in 10.0 mi North 6.9 mph - N/A   Partly Cloudy
3:53 PM 54.0 °F - 33.1 °F 45% 30.02 in 10.0 mi NNW 3.5 mph - N/A   Clear
4:53 PM 54.0 °F - 28.9 °F 38% 30.01 in 10.0 mi Calm Calm - N/A   Clear
5:53 PM 51.1 °F - 33.1 °F 50% 30.01 in 10.0 mi NNE 3.5 mph - N/A   Clear
6:53 PM 45.0 °F 43.5 °F 36.0 °F 71% 30.03 in 10.0 mi NW 3.5 mph - N/A   Clear
7:53 PM 42.1 °F 38.4 °F 37.9 °F 85% 30.04 in 10.0 mi WNW 5.8 mph - N/A   Clear
8:53 PM 39.9 °F 35.8 °F 36.0 °F 86% 30.04 in 10.0 mi NW 5.8 mph - N/A   Clear
9:53 PM 39.0 °F 36.8 °F 36.0 °F 89% 30.05 in 10.0 mi WNW 3.5 mph - N/A   Clear
10:53 PM 35.1 °F 31.0 °F 32.0 °F 89% 30.05 in 10.0 mi SSE 4.6 mph - N/A   Clear
11:53 PM 35.1 °F - 33.1 °F 92% 30.05 in 10.0 mi Calm Calm - N/A   Clear